TimeEST,TemperatureF,Dew PointF,Humidity,Sea Level PressureIn,VisibilityMPH,Wind Direction,Wind SpeedMPH,Gust SpeedMPH,PrecipitationIn,Events,Conditions,WindDirDegrees,DateUTC
12:53 AM,28.0,26.1,92,29.89,6.0,Calm,Calm,-,N/A,,Clear,0,2013-12-04 05:53:00
1:53 AM,27.0,25.0,92,29.91,5.0,Calm,Calm,-,N/A,,Clear,0,2013-12-04 06:53:00
2:53 AM,30.0,27.0,88,29.91,9.0,West,3.5,-,N/A,,Clear,270,2013-12-04 07:53:00
3:53 AM,28.0,25.0,88,29.92,10.0,WNW,3.5,-,N/A,,Clear,300,2013-12-04 08:53:00
4:53 AM,27.0,24.1,89,29.95,6.0,Calm,Calm,-,N/A,,Clear,0,2013-12-04 09:53:00
5:53 AM,26.1,21.9,84,29.97,10.0,Calm,Calm,-,N/A,,Clear,0,2013-12-04 10:53:00
6:53 AM,27.0,21.9,81,29.99,10.0,Calm,Calm,-,N/A,,Clear,0,2013-12-04 11:53:00
7:53 AM,30.0,25.0,82,30.01,10.0,West,3.5,-,N/A,,Clear,280,2013-12-04 12:53:00
8:53 AM,35.1,26.1,70,30.03,10.0,Calm,Calm,-,N/A,,Clear,0,2013-12-04 13:53:00
9:53 AM,37.9,27.0,65,30.05,10.0,Calm,Calm,-,N/A,,Clear,0,2013-12-04 14:53:00
10:53 AM,41.0,27.0,57,30.04,10.0,Variable,4.6,-,N/A,,Clear,0,2013-12-04 15:53:00
11:53 AM,41.0,26.1,55,30.03,10.0,NW,8.1,-,N/A,,Clear,320,2013-12-04 16:53:00
12:53 PM,41.0,26.1,55,30.04,10.0,Variable,6.9,-,N/A,,Clear,0,2013-12-04 17:53:00
1:53 PM,42.1,26.1,53,30.04,10.0,Variable,6.9,-,N/A,,Clear,0,2013-12-04 18:53:00
2:53 PM,42.1,26.1,53,30.04,10.0,Variable,3.5,-,N/A,,Clear,0,2013-12-04 19:53:00
3:53 PM,39.0,25.0,57,30.08,10.0,Variable,3.5,-,N/A,,Clear,0,2013-12-04 20:53:00
4:53 PM,30.9,26.1,82,30.11,10.0,Calm,Calm,-,N/A,,Clear,0,2013-12-04 21:53:00
5:53 PM,28.9,26.1,89,30.13,10.0,Calm,Calm,-,N/A,,Clear,0,2013-12-04 22:53:00
6:53 PM,28.0,25.0,88,30.17,9.0,Calm,Calm,-,N/A,,Clear,0,2013-12-04 23:53:00
7:53 PM,27.0,25.0,92,30.18,8.0,Calm,Calm,-,N/A,,Clear,0,2013-12-05 00:53:00
8:53 PM,27.0,24.1,89,30.19,9.0,Calm,Calm,-,N/A,,Clear,0,2013-12-05 01:53:00
9:53 PM,26.1,23.0,88,30.20,8.0,Calm,Calm,-,N/A,,Clear,0,2013-12-05 02:53:00
10:53 PM,25.0,21.9,88,30.21,9.0,Calm,Calm,-,N/A,,Clear,0,2013-12-05 03:53:00
11:53 PM,25.0,21.9,88,30.23,7.0,Calm,Calm,-,N/A,,Clear,0,2013-12-05 04:53:00